Weather in Georgiyevka

Russia / Khabarovsk Krai     47°57′21″N   135°14′44″E
temp.,
°C
wind,
m/s
gust,
m/s
humid.,
%
clouds,
%
prec.,
mm/h
press.,
hPa
HPBL,
m
15 may, sat
sat1501:00+14se4950100 0.0 1007145
04:00+13sse51251100 0.0 1004228
07:00+12s71878100 2.2 10021173
10:00+12s91691100 16.4 999876
13:00+13ssw91793100 6.9 999962
16:00+13sw81489100 10.2 10001081
19:00+13sw7117786 1.5 1001413
22:00+11sw61383100 2.5 1002289
16 may, sun
sun1601:00+9sw614902 0.2 1003356
04:00+9sw7158796 0.2 1002493
07:00+9wsw714834 0.0 1003668
10:00+14w813614 0.0 10021505
13:00+17w81351100 0.0 10022406
16:00+18w6115096 0.0 10011680
19:00+17w37564 0.0 1001159
22:00+12sw33600 0.0 100125
17 may, mon
mon1701:00+10ssw377165 0.0 1001105
04:00+9ssw497993 0.0 1001192
07:00+10ssw49830 0.3 1001340
10:00+16wsw56610 0.3 1002864
13:00+19w56493 0.0 10031830
16:00+20wnw57400 0.0 10032333
19:00+19sw34574 0.0 100392
22:00+13s496466 0.0 1004120
18 may, tue
tue1801:00+12s486787 0.0 1004116
04:00+11s4769100 0.0 1004113
07:00+12s41072100 0.0 1004234
10:00+19ssw61052100 0.0 1003615
13:00+24ssw6838100 0.0 10021533
16:00+25sw6843100 0.0 10001677
19:00+21ssw51155100 0.0 999306
22:00+15ssw4106489 0.0 1000153
19 may, wed
wed1901:00+13s411735 0.0 999188
04:00+12sw388558 0.2 1001164
07:00+13sw358692 0.3 1003186
10:00+14w237797 0.3 1005106
13:00+20nw57284 0.0 10051946
16:00+20wnw672964 0.0 10062132
19:00+18wnw23460 0.0 100760
22:00+12ssw11430 0.0 100810